[[{"header":{"parameterUnit":"m.s-1","parameterCategory":1,"la1":30.2991,"la2":30.254,"lo1":-89.0895,"lo2":-89.0444,"dy":0.0017,"dx":0.0017,"nx":28,"ny":28,"refTime":"2024-08-29T03:00:00:Z","depth":0,"parameterNumber":2,"parameterNumberName":"U-component_of_WINDS"},"data":[0,0,0,0,0,0,0,0,0,0,0,0,0,0,0,0,0,0,0,0,0,0,0,0,0,0,0,0,0,0,0,0,0,0,0,0,0,0,0,0,0,0,0,0,0,0,0,0,0,0,0,0,0,0,0,0,0,0,-2.3041,-2.3041,0,-2.3002,-2.3002,-2.3001,-2.2946,-2.2945,-2.2944,-2.2943,-2.2901,-2.2901,-2.2901,0,0,0,0,0,0,0,0,0,0,0,0,0,-2.3067,-2.3067,-2.3041,-2.3041,-2.304,-2.3002,-2.3002,-2.3001,-2.2946,-2.2945,-2.2943,-2.2942,-2.2901,-2.2901,-2.2901,0,0,0,0,0,0,0,0,0,0,0,0,0,-2.3045,-2.3067,-2.3042,-2.3008,-2.3005,-2.3002,-2.3002,-2.3001,-2.2946,-2.2945,-2.2943,-2.2942,-2.2901,-2.2901,-2.2901,-2.2927,0,0,-2.2899,-2.2899,0,0,0,0,0,0,0,0,-2.3046,-2.3044,-2.3014,-2.3011,-2.3007,-2.2977,-2.2996,-2.2976,-2.2946,-2.2968,-2.2943,-2.2941,-2.2927,-2.2925,-2.2921,-2.2925,-2.2923,-2.2899,-2.2899,-2.2899,-2.2899,0,0,0,0,0,0,0,-2.3048,-2.3046,-2.3026,-2.3013,-2.3009,-2.2995,-2.299,-2.2992,-2.2956,-2.2966,-2.2962,-2.2958,-2.2925,-2.2921,-2.2919,-2.2923,-2.2899,-2.2899,-2.2899,-2.2899,-2.2947,-2.2948,0,0,0,0,0,0,-2.3055,-2.3047,-2.3027,-2.3025,-2.3024,-2.2996,-2.299,-2.2988,-2.2956,-2.295,-2.296,-2.2956,-2.2922,-2.292,-2.2918,-2.2946,-2.2899,-2.2899,-2.2899,-2.2945,-2.2947,-2.2949,0,0,0,0,0,0,-2.3055,-2.3053,-2.3029,-2.3035,-2.3031,-2.2997,-2.2995,-2.2988,-2.2984,-2.2951,-2.2944,-2.2962,-2.2921,-2.2918,-2.2925,-2.2943,-2.2899,-2.2898,-2.2944,-2.2946,-2.2948,-2.3003,0,0,0,0,0,0,-2.3056,-2.3054,-2.3064,-2.3036,-2.3031,-2.3037,-2.2996,-2.2988,-2.2984,-2.2978,-2.2951,-2.2946,-2.292,-2.2926,-2.2925,-2.2942,-2.2898,-2.2942,-2.2945,-2.2947,-2.2999,-2.3007,-2.3013,0,0,0,0,0,-2.3058,-2.308,-2.3065,-2.3062,-2.3042,-2.3038,-2.3036,-2.3006,-2.2985,-2.2995,-2.2974,-2.2946,-2.2942,-2.2927,-2.2925,-2.2943,-2.294,-2.2944,-2.2947,-2.2996,-2.3005,-2.3013,0,0,0,0,0,0,-2.3111,-2.3076,-2.3058,-2.3073,-2.3059,-2.3029,-2.304,-2.3017,-2.3008,-2.3003,-2.2967,-2.2961,-2.2973,-2.2959,-2.2943,-2.2967,-2.2937,-2.294,-2.2975,-2.2984,-2.299,-2.2992,-2.2898,0,0,0,0,0,-2.3125,-2.3125,-2.3094,-2.311,-2.3104,-2.3074,-2.3071,-2.305,-2.3034,-2.3027,-2.3007,-2.2992,-2.2988,-2.2985,-2.2979,-2.2998,-2.2991,-2.3009,-2.3016,-2.3022,-2.3024,-2.3033,-2.304,-2.296,-2.296,-2.296,0,0,-2.3152,-2.3133,-2.3136,-2.312,-2.3107,-2.3108,-2.3069,-2.3071,-2.3071,-2.3028,-2.3033,-2.3018,-2.2999,-2.3012,-2.3017,-2.3001,-2.3046,-2.3026,-2.3031,-2.303,-2.3037,-2.3045,-2.3052,-2.2962,-2.2962,-2.2961,0,0,-2.3203,-2.3189,-2.32,-2.3188,-2.317,-2.3149,-2.3152,-2.3126,-2.3115,-2.312,-2.3087,-2.3087,-2.308,-2.3067,-2.306,-2.3108,-2.3082,-2.3108,-2.3143,-2.3151,-2.3158,-2.3163,-2.3179,-2.3185,-2.3111,-2.3111,-2.3111,0,-2.3239,-2.3239,-2.3209,-2.3213,-2.3208,-2.317,-2.318,-2.317,-2.315,-2.3147,-2.313,-2.3121,-2.3106,-2.3115,-2.3127,-2.3123,-2.3124,-2.3109,-2.3159,-2.3165,-2.3169,-2.3184,-2.319,-2.3114,-2.3114,-2.3113,-2.3113,0,-2.3284,-2.3285,-2.3297,-2.3279,-2.3275,-2.3283,-2.3253,-2.3253,-2.3233,-2.3214,-2.322,-2.3201,-2.319,-2.3191,-2.3171,-2.3198,-2.3188,-2.3166,-2.3135,-2.318,-2.3193,-2.3199,-2.3118,-2.3117,-2.3116,-2.3115,0,0,-2.3364,-2.3332,-2.3336,-2.3328,-2.3305,-2.3305,-2.3311,-2.3302,-2.3301,-2.329,-2.3293,-2.3289,-2.3269,-2.3261,-2.3239,-2.3247,-2.3285,-2.3224,-2.3223,-2.3235,-2.3313,-2.3328,-2.3335,-2.3269,-2.327,-2.3271,-2.3314,0,-2.3409,-2.3418,-2.3392,-2.3407,-2.3407,-2.3372,-2.3378,-2.3364,-2.3348,-2.3345,-2.3327,-2.3324,-2.3298,-2.3293,-2.3299,-2.3279,-2.33,-2.3276,-2.3271,-2.3271,-2.3275,-2.3342,-2.3358,-2.3399,-2.3319,-2.332,-2.332,0,-2.3461,-2.3453,-2.3469,-2.3445,-2.3444,-2.345,-2.3439,-2.3438,-2.3422,-2.3409,-2.3402,-2.3377,-2.3382,-2.3354,-2.3359,-2.3344,-2.334,-2.3331,-2.3331,-2.3328,-2.3297,-2.3339,-2.3412,-2.3417,-2.3328,-2.3328,-2.3327,0,-2.3516,-2.3509,-2.3517,-2.3512,-2.3485,-2.349,-2.3479,-2.3462,-2.3458,-2.3449,-2.3446,-2.3438,-2.3433,-2.3427,-2.34,-2.3383,-2.3408,-2.3379,-2.3397,-2.3398,-2.3402,-2.3401,-2.3474,-2.3404,-2.3403,-2.3403,-2.3403,0,-2.3567,-2.3578,-2.3542,-2.3547,-2.3558,-2.3528,-2.354,-2.3525,-2.3511,-2.3512,-2.3482,-2.3484,-2.345,-2.3448,-2.3428,-2.3435,-2.3433,-2.3423,-2.3417,-2.3424,-2.3425,-2.342,-2.3415,-2.3405,-2.3405,-2.3404,-2.3404,0,-2.363,-2.3606,-2.3613,-2.3588,-2.3582,-2.3591,-2.3569,-2.3573,-2.3556,-2.3558,-2.3556,-2.3529,-2.3525,-2.3499,-2.3489,-2.3476,-2.3489,-2.3479,-2.3495,-2.349,-2.351,-2.3508,-2.3579,-2.3586,-2.3514,-2.3514,-2.3515,0,-2.3663,-2.367,-2.3646,-2.3645,-2.3636,-2.3635,-2.3631,-2.3603,-2.36,-2.3584,-2.3589,-2.3583,-2.3577,-2.3573,-2.3551,-2.3544,-2.3531,-2.3557,-2.353,-2.3537,-2.353,-2.3529,-2.3529,-2.3562,-2.3563,-2.3564,-2.3564,0,-2.3723,-2.3712,-2.3707,-2.37,-2.3696,-2.3688,-2.3679,-2.368,-2.3649,-2.3647,-2.3643,-2.3638,-2.3629,-2.3623,-2.3612,-2.3601,-2.3577,-2.3574,-2.3577,-2.3584,-2.3592,-2.3586,-2.3508,-2.3571,-2.3571,-2.357,-2.357,-2.357,-2.377,-2.3775,-2.376,-2.3756,-2.3746,-2.3739,-2.374,-2.3724,-2.372,-2.3711,-2.3695,-2.3693,-2.3678,-2.3661,-2.3652,-2.365,-2.3636,-2.3642,-2.3643,-2.3644,-2.3647,-2.3594,-2.3648,-2.3648,-2.3648,-2.3647,-2.3647,0,-2.3828,-2.3817,-2.3814,-2.3802,-2.3799,-2.378,-2.3768,-2.3767,-2.3766,-2.3754,-2.3749,-2.3745,-2.374,-2.3719,-2.3711,-2.3714,-2.3703,-2.3712,-2.3711,-2.3708,-2.3661,-2.3658,-2.3721,-2.3721,-2.3721,-2.3721,-2.3721,-2.3721,-2.3858,-2.3865,-2.3852,-2.3854,-2.3842,-2.3841,-2.3836,-2.3828,-2.3819,-2.3816,-2.3811,-2.3798,-2.3783,-2.3774,-2.3768,-2.3762,-2.376,-2.3773,-2.3763,-2.3719,-2.3712,-2.3705,-2.3702,-2.3773,-2.3773,-2.381,-2.3811,-2.3811]},{"header":{"parameterUnit":"m.s-1","parameterCategory":1,"la1":30.2991,"la2":30.254,"lo1":-89.0895,"lo2":-89.0444,"dy":0.0017,"dx":0.0017,"nx":28,"ny":28,"refTime":"2024-08-29T03:00:00:Z","depth":0,"parameterNumber":3,"parameterNumberName":"V-component_of_WINDS"},"data":[0,0,0,0,0,0,0,0,0,0,0,0,0,0,0,0,0,0,0,0,0,0,0,0,0,0,0,0,0,0,0,0,0,0,0,0,0,0,0,0,0,0,0,0,0,0,0,0,0,0,0,0,0,0,0,0,0,0,1.0134,1.0134,0,1.0164,1.0164,1.0165,1.0207,1.0208,1.0209,1.0209,1.0238,1.0238,1.0238,0,0,0,0,0,0,0,0,0,0,0,0,0,1.011,1.0111,1.0134,1.0134,1.0134,1.0164,1.0164,1.0165,1.0207,1.0208,1.0209,1.021,1.0238,1.0238,1.0238,0,0,0,0,0,0,0,0,0,0,0,0,0,1.0128,1.0111,1.0134,1.0159,1.0162,1.0164,1.0164,1.0165,1.0207,1.0208,1.0209,1.021,1.0238,1.0238,1.0238,1.0216,0,0,1.0238,1.0238,0,0,0,0,0,0,0,0,1.0127,1.0129,1.0155,1.0158,1.016,1.0183,1.0166,1.0182,1.0207,1.019,1.0209,1.0211,1.0218,1.022,1.0223,1.0217,1.0219,1.0238,1.0238,1.0238,1.0238,0,0,0,0,0,0,0,1.0126,1.0128,1.0146,1.0155,1.0159,1.0168,1.0172,1.017,1.0197,1.0191,1.0194,1.0198,1.022,1.0223,1.0224,1.0219,1.0238,1.0238,1.0238,1.0238,1.0197,1.0196,0,0,0,0,0,0,1.0121,1.0127,1.0145,1.0146,1.0146,1.0168,1.0172,1.0175,1.0198,1.0202,1.0197,1.0199,1.0222,1.0224,1.0225,1.0202,1.0238,1.0238,1.0238,1.0199,1.0197,1.0196,0,0,0,0,0,0,1.0121,1.0123,1.0143,1.0138,1.0141,1.0167,1.0169,1.0175,1.0178,1.0202,1.0207,1.0195,1.0223,1.0225,1.0218,1.0204,1.0238,1.0238,1.02,1.0198,1.0197,1.0155,0,0,0,0,0,0,1.012,1.0122,1.0115,1.0137,1.0141,1.0137,1.0169,1.0174,1.0178,1.0182,1.0201,1.0205,1.0224,1.0218,1.0218,1.0204,1.0238,1.0201,1.0199,1.0197,1.0158,1.0152,1.0147,0,0,0,0,0,1.0119,1.0101,1.0114,1.0116,1.0133,1.0136,1.0138,1.0161,1.0177,1.0169,1.0185,1.0205,1.0205,1.0217,1.0218,1.0204,1.0202,1.02,1.0197,1.016,1.0153,1.0147,0,0,0,0,0,0,1.0075,1.0105,1.0119,1.0108,1.0119,1.0143,1.0134,1.0153,1.0158,1.0162,1.0189,1.0193,1.0183,1.0192,1.0205,1.0184,1.0207,1.0204,1.0178,1.0172,1.0167,1.0165,1.0239,0,0,0,0,0,1.0065,1.0065,1.0091,1.0078,1.0083,1.0108,1.011,1.0127,1.0139,1.0143,1.0158,1.0168,1.0171,1.0172,1.0175,1.0159,1.0164,1.015,1.0144,1.014,1.0138,1.013,1.0124,1.0188,1.0188,1.0188,0,0,1.0042,1.0058,1.0057,1.007,1.0081,1.008,1.0111,1.0109,1.0109,1.0143,1.0138,1.0149,1.0162,1.015,1.0146,1.0158,1.0121,1.0137,1.0133,1.0133,1.0127,1.0121,1.0115,1.0186,1.0186,1.0186,0,0,1.0001,1.0013,1.0005,1.0015,1.0031,1.0047,1.0045,1.0066,1.0075,1.0071,1.0096,1.0095,1.0099,1.0107,1.0112,1.0074,1.0093,1.0075,1.0047,1.0039,1.0034,1.003,1.0017,1.0012,1.0072,1.0072,1.0072,0,0.9971,0.9973,0.9998,0.9995,1.0,1.0031,1.0023,1.0031,1.0046,1.0049,1.0062,1.0068,1.0079,1.007,1.0061,1.0063,1.0061,1.0073,1.0033,1.0029,1.0026,1.0013,1.0008,1.007,1.007,1.007,1.007,0,0.9935,0.9936,0.9927,0.9943,0.9946,0.994,0.9964,0.9965,0.9981,0.9996,0.9991,1.0005,1.0012,1.0011,1.0026,1.0004,1.0011,1.0028,1.0052,1.0017,1.0006,1.0001,1.0066,1.0067,1.0068,1.0068,0,0,0.9868,0.9898,0.9895,0.9902,0.9922,0.9922,0.9917,0.9926,0.9926,0.9935,0.9932,0.9934,0.995,0.9955,0.9972,0.9965,0.9935,0.9983,0.9984,0.9974,0.9912,0.9899,0.9893,0.9947,0.9946,0.9946,0.9911,0,0.9832,0.9827,0.9849,0.9838,0.9839,0.9868,0.9864,0.9875,0.9888,0.989,0.9904,0.9906,0.9927,0.993,0.9925,0.994,0.9923,0.9942,0.9944,0.9944,0.994,0.9887,0.9874,0.984,0.9906,0.9906,0.9905,0,0.9789,0.9797,0.9786,0.9807,0.9808,0.9804,0.9813,0.9814,0.9827,0.9838,0.9843,0.9863,0.9859,0.9881,0.9876,0.9889,0.989,0.9898,0.9897,0.9898,0.9923,0.9888,0.983,0.9825,0.9899,0.9899,0.99,0,0.9742,0.975,0.9745,0.975,0.9774,0.977,0.978,0.9794,0.9797,0.9805,0.9807,0.9814,0.9817,0.9822,0.9842,0.9856,0.9834,0.9858,0.9842,0.9842,0.9837,0.9837,0.9779,0.9837,0.9837,0.9837,0.9837,0,0.9699,0.9691,0.9724,0.9721,0.9713,0.9738,0.9729,0.9741,0.9754,0.9753,0.9778,0.9776,0.9803,0.9804,0.9819,0.9813,0.9814,0.9822,0.9826,0.982,0.9819,0.9822,0.9825,0.9836,0.9836,0.9836,0.9836,0,0.9645,0.9667,0.9663,0.9686,0.9692,0.9685,0.9704,0.9702,0.9716,0.9715,0.9716,0.9739,0.9741,0.9762,0.9769,0.9779,0.9767,0.9775,0.9763,0.9766,0.9749,0.9751,0.9691,0.9685,0.9746,0.9746,0.9745,0,0.9617,0.9612,0.9635,0.9636,0.9645,0.9647,0.9651,0.9676,0.9678,0.9693,0.9688,0.9693,0.9698,0.9701,0.9718,0.9723,0.9732,0.9711,0.9733,0.9727,0.9732,0.9733,0.9732,0.9706,0.9706,0.9705,0.9704,0,0.9565,0.9576,0.9581,0.959,0.9594,0.9602,0.9611,0.9611,0.9638,0.9639,0.9643,0.9647,0.9654,0.9659,0.9667,0.9676,0.9694,0.9697,0.9694,0.9688,0.9681,0.9685,0.9751,0.9699,0.9699,0.97,0.97,0.97,0.9523,0.952,0.9536,0.9541,0.9551,0.9559,0.9558,0.9573,0.9576,0.9585,0.9599,0.96,0.9613,0.9626,0.9633,0.9634,0.9645,0.964,0.9639,0.9638,0.9635,0.968,0.9636,0.9636,0.9636,0.9636,0.9636,0,0.9473,0.9484,0.9489,0.9501,0.9505,0.9523,0.9534,0.9536,0.9537,0.9548,0.9552,0.9556,0.956,0.9577,0.9583,0.9581,0.9589,0.9581,0.9582,0.9584,0.9624,0.9627,0.9574,0.9574,0.9574,0.9574,0.9574,0.9574,0.9447,0.9443,0.9456,0.9456,0.9468,0.947,0.9475,0.9482,0.9491,0.9495,0.9499,0.951,0.9523,0.953,0.9535,0.954,0.9541,0.953,0.9537,0.9575,0.9581,0.9587,0.9589,0.953,0.953,0.9497,0.9497,0.9497]}]]